GW4400 Weather Reports


time (UTC)temp
C
wind
direction
speed
KPH
gust
KPH
rain 1hr
cm
rain 24hr
cm
rain mn
cm
humidity
%
barometer
mb
20260506034018 17 74 0.0 0.0 0.00 0.00 0.00 87 1011.9
20260506033518 17 74 0.0 0.0 0.00 0.00 0.00 86 1012.1
20260506033019 17 74 0.0 0.0 0.00 0.00 0.00 86 1012.2
20260506032517 17 74 0.0 0.0 0.00 0.00 0.00 86 1012.4
20260506032015 17 96 0.0 0.0 0.00 0.00 0.00 86 1012.3
20260506031515 17 96 0.0 0.0 0.00 0.00 0.00 85 1012.3
20260506031015 17 118 0.0 0.0 0.00 0.00 0.00 84 1012.5
20260506030514 17 118 0.0 0.0 0.00 0.00 0.00 85 1012.5
20260506030018 16 118 0.0 0.0 0.00 0.00 0.00 83 1012.5
20260506025516 16 118 0.0 0.0 0.00 0.00 0.00 86 1012.3
20260506025012 16 271 0.0 0.0 0.00 0.00 0.00 87 1012.1
20260506024530 17 271 0.0 0.0 0.00 0.00 0.00 87 1012.3
20260506024014 16 271 0.0 0.0 0.00 0.00 0.00 86 1012.3
20260506023510 16 271 0.0 0.0 0.00 0.00 0.00 86 1012.3
20260506023010 16 271 0.0 0.0 0.00 0.00 0.00 87 1012.3
20260506022515 16 271 0.0 0.0 0.00 0.00 0.00 86 1012.2
20260506022008 16 271 0.0 0.0 0.00 0.00 0.00 86 1012.1
20260506021508 16 271 0.0 0.0 0.00 0.00 0.00 86 1012.1
20260506021008 16 271 0.0 0.0 0.00 0.00 0.00 87 1012.1
20260506020505 16 271 0.0 0.0 0.00 0.00 0.00 87 1012.0
20260506020008 16 271 0.0 0.0 0.00 0.00 0.00 87 1012.0
20260506015508 16 271 0.0 0.0 0.00 0.00 0.00 87 1012.2
20260506015005 16 271 0.0 0.0 0.00 0.00 0.00 87 1012.0
20260506014507 16 271 0.0 0.0 0.00 0.00 0.00 88 1012.2
20260506014003 16 271 0.0 0.0 0.00 0.00 0.00 87 1012.2
20260506013502 16 271 0.0 0.0 0.00 0.00 0.00 88 1012.2
20260506013002 16 271 0.0 0.0 0.00 0.00 0.00 88 1012.2
20260506012502 16 271 0.0 0.0 0.00 0.00 0.00 86 1012.0
20260506012002 16 271 0.0 0.0 0.00 0.00 0.00 87 1011.9
20260506011608 16 271 0.0 0.0 0.00 0.00 0.00 86 1011.8
20260506011103 16 271 0.0 0.0 0.00 0.00 0.00 87 1011.7
20260506010559 16 271 0.0 0.0 0.00 0.00 0.00 86 1011.6
20260506010058 16 271 0.0 0.0 0.00 0.00 0.00 86 1011.6
20260506005558 16 271 0.0 0.0 0.00 0.00 0.00 85 1011.6
20260506005056 16 271 0.0 0.0 0.00 0.00 0.00 85 1011.4
20260506004557 16 201 0.0 0.0 0.00 0.00 0.00 83 1011.3
20260506004056 16 201 0.0 0.0 0.00 0.00 0.00 82 1011.4
20260506003557 16 201 0.0 0.0 0.00 0.00 0.00 81 1011.3
20260506003056 16 201 0.0 6.4 0.00 0.00 0.00 81 1011.4
20260506002554 17 201 0.0 6.4 0.00 0.00 0.00 81 1011.5
20260506002055 17 200 0.0 0.0 0.00 0.00 0.00 79 1011.5
20260506001554 18 200 0.0 0.0 0.00 0.00 0.00 78 1011.5
20260506001055 18 200 0.0 0.0 0.00 0.00 0.00 77 1011.5
20260506000552 19 200 0.0 0.0 0.00 0.00 0.00 75 1011.4
20260506000051 20 200 0.0 0.0 0.00 0.00 0.00 74 1011.2
20260505235550 20 197 0.0 0.0 0.00 0.00 0.00 74 1011.4
20260505235050 21 197 0.0 0.0 0.00 0.00 0.00 72 1011.4
20260505234559 21 197 0.0 0.0 0.00 0.00 0.00 70 1011.4
20260505234049 21 197 0.0 0.0 0.00 0.00 0.00 65 1011.6
20260505233548 22 197 0.0 0.0 0.00 0.00 0.00 64 1011.7
20260505233047 22 169 0.0 0.0 0.00 0.00 0.00 66 1011.5
20260505232547 22 130 0.0 0.0 0.00 0.00 0.00 66 1011.4
20260505232046 22 130 0.0 0.0 0.00 0.00 0.00 68 1011.5
20260505231602 22 130 0.0 0.0 0.00 0.00 0.00 71 1011.4
20260505231044 22 129 0.0 0.0 0.00 0.00 0.00 68 1011.4
20260505230544 22 130 0.0 0.0 0.00 0.00 0.00 65 1011.4
20260505230043 22 182 0.0 0.0 0.00 0.00 0.00 67 1011.6
20260505225542 22 182 0.0 0.0 0.00 0.00 0.00 63 1011.6
20260505225042 23 183 0.0 0.0 0.00 0.00 0.00 56 1011.6
20260505224541 23 155 0.0 0.0 0.00 0.00 0.00 56 1011.5
20260505224043 23 155 0.0 0.0 0.00 0.00 0.00 54 1011.4
20260505223541 23 125 0.0 0.0 0.00 0.00 0.00 53 1011.5
20260505223039 23 125 0.0 0.0 0.00 0.00 0.00 53 1011.5
20260505222539 23 159 0.0 0.0 0.00 0.00 0.00 51 1011.6
20260505222039 23 128 0.0 0.0 0.00 0.00 0.00 53 1011.6
20260505221538 24 141 0.0 0.0 0.00 0.00 0.00 50 1011.8
20260505221036 24 174 0.0 0.0 0.00 0.00 0.00 50 1011.9
20260505220535 24 235 0.0 0.0 0.00 0.00 0.00 50 1011.9
20260505220038 23 234 0.0 0.0 0.00 0.00 0.00 50 1011.9
20260505215534 23 218 0.0 0.0 0.00 0.00 0.00 50 1011.9
20260505215033 23 139 0.0 0.0 0.00 0.00 0.00 51 1011.9
20260505214558 23 162 0.0 0.0 0.00 0.00 0.00 50 1011.7
20260505214034 23 165 0.0 1.6 0.00 0.00 0.00 52 1011.5
20260505213531 23 225 0.0 3.2 0.00 0.00 0.00 48 1011.6
20260505213031 23 250 0.0 3.2 0.00 0.00 0.00 48 1011.7
20260505212533 24 158 0.0 1.6 0.00 0.00 0.00 48 1011.6
20260505212030 25 135 0.0 4.8 0.00 0.00 0.00 46 1011.4
20260505211532 25 231 0.0 6.4 0.00 0.00 0.00 46 1011.5
20260505211028 25 245 0.0 6.4 0.00 0.00 0.00 49 1011.6
20260505210526 25 231 0.0 0.0 0.00 0.00 0.00 48 1011.7
20260505210026 25 233 0.0 9.7 0.00 0.00 0.00 49 1011.8
20260505205525 25 227 0.0 9.7 0.00 0.00 0.00 47 1011.7
20260505205025 26 107 0.0 9.7 0.00 0.00 0.00 46 1011.6
20260505204524 26 143 0.0 6.4 0.00 0.00 0.00 47 1011.8
20260505204021 26 271 0.0 0.0 0.00 0.00 0.00 48 1011.9
20260505203525 25 167 0.0 6.4 0.00 0.00 0.00 47 1011.9
20260505203020 25 259 0.0 6.4 0.00 0.00 0.00 47 1012.1
20260505202520 25 153 0.0 6.4 0.00 0.00 0.00 45 1012.1
20260505202017 26 232 0.0 11.3 0.00 0.00 0.00 47 1012.3
20260505201516 25 236 0.0 11.3 0.00 0.00 0.00 45 1012.2
20260505201014 25 257 0.0 17.7 0.00 0.00 0.00 46 1012.2
20260505200514 25 198 0.0 17.7 0.00 0.00 0.00 45 1012.3
20260505200013 25 278 0.0 8.0 0.00 0.00 0.00 47 1012.2
20260505195513 25 165 0.0 8.0 0.00 0.00 0.00 47 1012.2
20260505195010 25 188 0.0 3.2 0.00 0.00 0.00 48 1012.3
20260505194509 25 235 0.0 3.2 0.00 0.00 0.00 45 1012.5
20260505194008 25 70 0.0 8.0 0.00 0.00 0.00 47 1012.6
20260505193511 25 243 0.0 6.4 0.00 0.00 0.00 48 1012.7
20260505193006 25 256 0.0 6.4 0.00 0.00 0.00 44 1012.8
20260505192511 25 238 0.0 0.0 0.00 0.00 0.00 49 1012.9
20260505192006 25 122 0.0 0.0 0.00 0.00 0.00 46 1012.8
20260505191504 25 291 0.0 1.6 0.00 0.00 0.00 46 1013.0
20260505191001 25 284 0.0 8.0 0.00 0.00 0.00 46 1013.2
20260505190502 25 243 0.0 8.0 0.00 0.00 0.00 45 1013.3
20260505190001 25 179 0.0 6.4 0.00 0.00 0.00 46 1013.3
20260505185600 25 101 0.0 6.4 0.00 0.00 0.00 46 1013.3
20260505185100 25 234 0.0 6.4 0.00 0.00 0.00 47 1013.2
20260505184559 25 147 0.0 4.8 0.00 0.00 0.00 45 1013.3
20260505184057 25 218 0.0 4.8 0.00 0.00 0.00 49 1013.3
20260505183557 25 135 0.0 8.0 0.00 0.00 0.00 49 1013.3
20260505183105 25 76 0.0 8.0 0.00 0.00 0.00 49 1013.4
20260505182554 25 280 0.0 3.2 0.00 0.00 0.00 51 1013.4
20260505182052 24 248 0.0 9.7 0.00 0.00 0.00 48 1013.2
20260505181553 24 127 0.0 9.7 0.00 0.00 0.00 50 1013.3
20260505181050 25 97 0.0 3.2 0.00 0.00 0.00 50 1013.3
20260505180549 24 266 0.0 4.8 0.00 0.00 0.00 54 1013.4
20260505180051 24 88 0.0 12.9 0.00 0.00 0.00 53 1013.5
20260505175548 24 271 0.0 12.9 0.00 0.00 0.00 55 1013.6
20260505175047 24 147 0.0 3.2 0.00 0.00 0.00 53 1013.5
20260505174557 24 283 0.0 3.2 0.00 0.00 0.00 55 1013.8
20260505174046 24 120 0.0 3.2 0.00 0.00 0.00 55 1014.0
20260505173546 24 271 0.0 4.8 0.00 0.00 0.00 54 1014.1
20260505173043 24 224 0.0 8.0 0.00 0.00 0.00 52 1014.3
20260505172544 24 248 0.0 8.0 0.00 0.00 0.00 54 1014.4
20260505172043 24 258 0.0 12.9 0.00 0.00 0.00 56 1014.3
20260505171546 23 98 0.0 12.9 0.00 0.00 0.00 58 1014.5
20260505171038 23 284 0.0 3.2 0.00 0.00 0.00 54 1014.4
20260505170537 23 225 0.0 9.7 0.00 0.00 0.00 53 1014.4
20260505170036 23 281 0.0 9.7 0.00 0.00 0.00 53 1014.4
20260505165535 23 275 0.0 17.7 0.00 0.00 0.00 52 1014.5
20260505165036 23 291 1.6 17.7 0.00 0.00 0.00 52 1014.6
20260505164536 23 289 0.0 17.7 0.00 0.00 0.00 53 1014.4
20260505164036 23 192 1.6 17.7 0.00 0.00 0.00 53 1014.2
20260505163534 23 269 0.0 17.7 0.00 0.00 0.00 52 1014.2
20260505163033 23 235 3.2 17.7 0.00 0.00 0.00 51 1014.3
20260505162532 23 280 0.0 8.0 0.00 0.00 0.00 54 1014.1
20260505162029 23 129 0.0 8.0 0.00 0.00 0.00 55 1014.1
20260505161529 23 261 0.0 9.7 0.00 0.00 0.00 56 1014.2
20260505161028 23 307 0.0 9.7 0.00 0.00 0.00 54 1014.3
20260505160527 23 238 0.0 3.2 0.00 0.00 0.00 58 1014.3
20260505153016 22 332 0.0 0.0 0.00 0.00 0.00 63 1014.7
20260505152514 22 103 0.0 0.0 0.00 0.00 0.00 64 1014.8
20260505152016 22 85 0.0 0.0 0.00 0.00 0.00 67 1014.7
20260505151512 21 131 0.0 0.0 0.00 0.00 0.00 66 1014.7
20260505151012 22 115 0.0 0.0 0.00 0.00 0.00 69 1014.6
20260505150511 22 59 0.0 0.0 0.00 0.00 0.00 68 1014.8
20260505140555 20 122 0.0 0.0 0.00 0.00 0.00 75 1015.1
20260505140111 19 222 0.0 0.0 0.00 0.00 0.00 76 1015.1
20260505125026 13 304 0.0 0.0 0.00 0.00 0.00 95 1014.4
20260505124532 13 304 0.0 0.0 0.00 0.00 0.00 95 1014.4
20260505124023 12 305 0.0 0.0 0.00 0.00 0.00 95 1014.2
20260505123524 12 305 0.0 0.0 0.00 0.00 0.00 95 1014.4
20260505123028 12 304 0.0 0.0 0.00 0.00 0.00 96 1014.4
20260505122520 12 304 0.0 0.0 0.00 0.00 0.00 96 1014.3
20260505122118 12 304 0.0 0.0 0.00 0.00 0.00 96 1014.4
20260505121522 12 305 0.0 0.0 0.00 0.00 0.00 97 1014.3
20260505121015 11 304 0.0 0.0 0.00 0.00 0.00 97 1014.5
20260505120512 11 304 0.0 0.0 0.00 0.00 0.00 97 1014.4
20260505120027 11 304 0.0 0.0 0.00 0.00 0.00 97 1014.3
20260505115508 10 305 0.0 0.0 0.00 0.00 0.00 97 1014.4
20260505115007 10 305 0.0 0.0 0.00 0.00 0.00 96 1014.4
20260505114504 10 305 0.0 0.0 0.00 0.00 0.00 96 1014.3
20260505114005 9 304 0.0 0.0 0.00 0.00 0.00 96 1014.4
20260505113600 8 304 0.0 0.0 0.00 0.00 0.00 96 1014.3
20260505113120 7 304 0.0 0.0 0.00 0.00 0.00 96 1014.0
20260505112557 7 300 0.0 0.0 0.00 0.00 0.00 96 1014.0
20260505112057 6 300 0.0 0.0 0.00 0.00 0.00 96 1013.9
20260505111556 6 300 0.0 0.0 0.00 0.00 0.00 96 1013.8
20260505111056 6 300 0.0 0.0 0.00 0.00 0.00 96 1013.7
20260505110558 5 300 0.0 0.0 0.00 0.00 0.00 96 1013.7
20260505102047 5 300 0.0 0.0 0.00 0.00 0.00 96 1013.3
20260505101552 5 300 0.0 0.0 0.00 0.00 0.00 96 1013.3
20260505101045 5 300 0.0 0.0 0.00 0.00 0.00 96 1013.4
20260505100545 5 300 0.0 0.0 0.00 0.00 0.00 95 1013.4
20260505100044 5 300 0.0 0.0 0.00 0.00 0.00 96 1013.4
20260505095543 5 300 0.0 0.0 0.00 0.00 0.00 96 1013.7
20260505095044 5 300 0.0 0.0 0.00 0.00 0.00 96 1013.7
20260505094542 5 300 0.0 0.0 0.00 0.00 0.00 96 1013.6
20260505094040 5 300 0.0 0.0 0.00 0.00 0.00 95 1013.5
20260505093540 5 300 0.0 0.0 0.00 0.00 0.00 95 1013.5
20260505093039 5 300 0.0 0.0 0.00 0.00 0.00 95 1013.7
20260505092539 5 300 0.0 0.0 0.00 0.00 0.00 95 1013.6
20260505092037 5 300 0.0 0.0 0.00 0.00 0.00 95 1013.4
20260505091539 6 300 0.0 0.0 0.00 0.00 0.00 95 1013.6
20260505091035 6 300 0.0 0.0 0.00 0.00 0.00 95 1013.6
20260505090534 6 300 0.0 0.0 0.00 0.00 0.00 95 1013.5
20260505090033 6 300 0.0 0.0 0.00 0.00 0.00 95 1013.7
20260505085532 6 300 0.0 0.0 0.00 0.00 0.00 95 1013.6
20260505085033 6 300 0.0 0.0 0.00 0.00 0.00 95 1013.6
20260505084530 6 300 0.0 0.0 0.00 0.00 0.00 96 1013.7
20260505084027 6 300 0.0 0.0 0.00 0.00 0.00 95 1013.7
20260505083527 6 300 0.0 0.0 0.00 0.00 0.00 95 1013.7
20260505083026 6 300 0.0 0.0 0.00 0.00 0.00 95 1013.7
20260505082528 6 300 0.0 0.0 0.00 0.00 0.00 95 1013.7
20260505082025 6 300 0.0 0.0 0.00 0.00 0.00 95 1013.8
20260505081526 6 300 0.0 0.0 0.00 0.00 0.00 95 1013.8
20260505081024 6 300 0.0 0.0 0.00 0.00 0.00 96 1013.8
20260505080522 6 300 0.0 0.0 0.00 0.00 0.00 95 1013.7
20260505080021 6 300 0.0 0.0 0.00 0.00 0.00 95 1013.7
20260505075520 6 300 0.0 0.0 0.00 0.00 0.00 95 1013.7
20260505075022 6 300 0.0 0.0 0.00 0.00 0.00 95 1013.7
20260505074519 6 300 0.0 0.0 0.00 0.00 0.00 95 1013.6
20260505074019 6 300 0.0 0.0 0.00 0.00 0.00 95 1013.7
20260505073523 6 300 0.0 0.0 0.00 0.00 0.00 95 1013.8
20260505073017 6 300 0.0 0.0 0.00 0.00 0.00 95 1013.7
20260505072516 7 300 0.0 0.0 0.00 0.00 0.00 95 1013.6
20260505072014 7 300 0.0 0.0 0.00 0.00 0.00 95 1013.7
20260505071528 7 300 0.0 0.0 0.00 0.00 0.00 95 1013.8
20260505071013 7 300 0.0 0.0 0.00 0.00 0.00 95 1013.7
20260505070516 7 300 0.0 0.0 0.00 0.00 0.00 95 1013.8
20260505070011 7 300 0.0 0.0 0.00 0.00 0.00 95 1013.8
20260505065509 7 300 0.0 0.0 0.00 0.00 0.00 95 1013.7
20260505065007 7 300 0.0 0.0 0.00 0.00 0.00 95 1013.7
20260505064509 7 300 0.0 0.0 0.00 0.00 0.00 95 1013.9
20260505064007 7 300 0.0 0.0 0.00 0.00 0.00 95 1013.7
20260505063506 7 300 0.0 0.0 0.00 0.00 0.00 95 1013.8
20260505063007 7 300 0.0 0.0 0.00 0.00 0.00 95 1013.8
20260505062503 7 300 0.0 0.0 0.00 0.00 0.00 95 1013.8
20260505062002 7 300 0.0 0.0 0.00 0.00 0.00 95 1013.8
20260505061502 7 300 0.0 0.0 0.00 0.00 0.00 95 1013.9
20260505061002 7 300 0.0 0.0 0.00 0.00 0.00 95 1013.9
20260505060600 7 300 0.0 0.0 0.00 0.00 0.00 94 1013.9
20260505060100 7 300 0.0 0.0 0.00 0.00 0.00 95 1013.9
20260505055601 8 300 0.0 0.0 0.00 0.00 0.00 95 1013.9
20260505055058 8 300 0.0 0.0 0.00 0.00 0.00 95 1013.9
20260505054557 8 300 0.0 0.0 0.00 0.00 0.00 95 1014.2
20260505054100 8 300 0.0 0.0 0.00 0.00 0.00 94 1014.2
20260505053555 8 300 0.0 0.0 0.00 0.00 0.00 94 1014.1
20260505053055 8 300 0.0 0.0 0.00 0.00 0.00 94 1014.1
20260505052551 8 300 0.0 0.0 0.00 0.00 0.00 94 1014.0
20260505052052 8 300 0.0 0.0 0.00 0.00 0.00 94 1014.1
20260505051602 8 300 0.0 0.0 0.00 0.00 0.00 94 1014.0
20260505051048 8 300 0.0 0.0 0.00 0.00 0.00 94 1014.1
20260505050548 8 300 0.0 0.0 0.00 0.00 0.00 94 1014.0
20260505041531 9 300 0.0 0.0 0.00 0.00 0.00 94 1014.0
20260505041029 9 300 0.0 0.0 0.00 0.00 0.00 94 1013.9
20260505040529 9 300 0.0 0.0 0.00 0.00 0.00 93 1013.9
20260505040026 10 300 0.0 0.0 0.00 0.00 0.00 93 1013.9
20260505035625 10 300 0.0 0.0 0.00 0.00 0.00 93 1013.9
20260505035024 10 300 0.0 0.0 0.00 0.00 0.00 93 1014.0
20260505034524 10 300 0.0 0.0 0.00 0.00 0.00 94 1014.0